Location: Corcelles
(46.1547°N, 4.7234°E)
Time: 20:13:01
(UTC+00:00)

COBE Rocket - Pass Details

Date: 14 July 2020
Orbit: 679 x 783 km, 97.1° (Epoch: 14 August)

Event Time Altitude Azimuth Distance (km) Brightness Sun altitude
Exits shadow 02:23:54 12° 178° (S) 2,146 5.9 -13.5°
Maximum altitude 02:28:33 65° 260° (W) 816 3.9 -13.0°
Drops below altitude 10° 02:33:26 10° 342° (NNW) 2,230 6.9 -12.5°
Sets 02:35:42 0° 346° (NNW) 3,139 7.7 -12.2°
